• Em Portugal
  • Lista de países
  • Para 7 dias
  • Temperatura da água
  • Mapas de satélite
  • Mapa do tempo
  • Widgets de tempo
  • user-avatar
    Iniciar Sessão

    Previsão horária em Aleksandrowice

    Hoje, 21 Abril, Sábado

    Tempo Temperatura Precipitação Vento Pressão Humidade
    00:00 +16°C° 0 mm 3 m/s 756 mmHg 68%
    01:00 +16°C° 0 mm 2 m/s 755 mmHg 68%
    02:00 +16°C° 0 mm 3 m/s 755 mmHg 69%
    03:00 +16°C° 0 mm 3 m/s 755 mmHg 70%
    04:00 +14°C° 0 mm 3 m/s 754 mmHg 71%
    05:00 +16°C° 0 mm 3 m/s 754 mmHg 71%
    06:00 +17°C° 0 mm 3 m/s 754 mmHg 71%
    07:00 +18°C° 0 mm 3 m/s 754 mmHg 69%
    08:00 +20°C° 0 mm 3 m/s 754 mmHg 64%
    09:00 +21°C° 0 mm 3 m/s 754 mmHg 59%
    10:00 +24°C° 0 mm 3 m/s 754 mmHg 54%
    11:00 +23°C° 0 mm 4 m/s 754 mmHg 52%
    12:00 +25°C° 0 mm 4 m/s 754 mmHg 49%
    13:00 +26°C° 0 mm 5 m/s 754 mmHg 46%
    14:00 +25°C° 0 mm 5 m/s 754 mmHg 47%
    15:00 +25°C° 0 mm 5 m/s 754 mmHg 47%
    16:00 +23°C° 0 mm 5 m/s 754 mmHg 48%
    17:00 +21°C° 0 mm 4 m/s 754 mmHg 53%
    18:00 +19°C° 0 mm 4 m/s 754 mmHg 59%
    19:00 +17°C° 0 mm 3 m/s 755 mmHg 64%
    20:00 +14°C° 0 mm 3 m/s 755 mmHg 64%
    21:00 +13°C° 0 mm 3 m/s 755 mmHg 64%
    22:00 +13°C° 0 mm 2 m/s 756 mmHg 64%
    23:00 +12°C° 0 mm 2 m/s 756 mmHg 65%

    Amanhã, 22 Abril, Domingo

    Tempo Temperatura Precipitação Vento Pressão Humidade
    00:00 +11°C° 0 mm 1 m/s 756 mmHg 66%
    01:00 +10°C° 0 mm 1 m/s 756 mmHg 67%
    02:00 +10°C° 0 mm 1 m/s 756 mmHg 68%
    03:00 +9°C° 0 mm 1 m/s 756 mmHg 69%
    04:00 +8°C° 0 mm 0 m/s 756 mmHg 70%
    05:00 +9°C° 0 mm 0 m/s 756 mmHg 67%
    06:00 +10°C° 0 mm 0 m/s 756 mmHg 64%
    07:00 +11°C° 0 mm 0 m/s 756 mmHg 61%
    08:00 +13°C° 0 mm 0 m/s 755 mmHg 56%
    09:00 +16°C° 0 mm 1 m/s 755 mmHg 51%
    10:00 +19°C° 0 mm 1 m/s 755 mmHg 47%
    11:00 +20°C° 0 mm 1 m/s 755 mmHg 44%
    12:00 +21°C° 0 mm 1 m/s 755 mmHg 41%
    13:00 +22°C° 0 mm 1 m/s 754 mmHg 38%
    14:00 +22°C° 0 mm 1 m/s 754 mmHg 38%
    15:00 +22°C° 0 mm 1 m/s 753 mmHg 39%
    16:00 +21°C° 0 mm 1 m/s 753 mmHg 39%
    17:00 +20°C° 0 mm 1 m/s 753 mmHg 44%
    18:00 +17°C° 0 mm 2 m/s 753 mmHg 50%
    19:00 +15°C° 0 mm 2 m/s 753 mmHg 55%
    20:00 +15°C° 0 mm 2 m/s 753 mmHg 56%
    21:00 +14°C° 0 mm 2 m/s 753 mmHg 57%
    22:00 +13°C° 0 mm 2 m/s 753 mmHg 58%
    23:00 +12°C° 0 mm 3 m/s 752 mmHg 60%

    Depois de amanhã, 23 Abril, Segunda-feira

    Tempo Temperatura Precipitação Vento Pressão Humidade
    00:00 +12°C° 0 mm 3 m/s 752 mmHg 61%
    01:00 +11°C° 0 mm 3 m/s 752 mmHg 63%
    02:00 +11°C° 0,1 mm 3 m/s 752 mmHg 65%
    03:00 +12°C° 0,1 mm 3 m/s 751 mmHg 67%
    04:00 +12°C° 0,1 mm 3 m/s 751 mmHg 69%
    05:00 +13°C° 0,1 mm 3 m/s 751 mmHg 70%
    06:00 +14°C° 0,1 mm 3 m/s 751 mmHg 71%
    07:00 +16°C° 0,1 mm 3 m/s 750 mmHg 72%
    08:00 +18°C° 0,1 mm 3 m/s 750 mmHg 69%
    09:00 +20°C° 0,1 mm 4 m/s 750 mmHg 65%
    10:00 +23°C° 0,1 mm 4 m/s 750 mmHg 62%
    11:00 +23°C° 0,7 mm 5 m/s 750 mmHg 61%
    12:00 +23°C° 0,7 mm 5 m/s 750 mmHg 60%
    13:00 +23°C° 0,7 mm 5 m/s 749 mmHg 60%
    14:00 +22°C° 0,8 mm 5 m/s 749 mmHg 66%
    15:00 +21°C° 0,8 mm 5 m/s 749 mmHg 71%
    16:00 +20°C° 0,8 mm 5 m/s 749 mmHg 77%
    17:00 +19°C° 0,8 mm 4 m/s 750 mmHg 81%
    18:00 +18°C° 0,8 mm 4 m/s 750 mmHg 84%
    19:00 +15°C° 0,8 mm 4 m/s 750 mmHg 88%
    20:00 +15°C° 0,1 mm 4 m/s 751 mmHg 89%
    21:00 +14°C° 0,1 mm 3 m/s 751 mmHg 91%
    22:00 +13°C° 0,1 mm 3 m/s 752 mmHg 92%
    23:00 +13°C° 0,1 mm 3 m/s 752 mmHg 92%

    24 Abril, Terça-feira

    Tempo Temperatura Precipitação Vento Pressão Humidade
    00:00 +12°C° 0,1 mm 3 m/s 752 mmHg 92%
    01:00 +13°C° 0,1 mm 2 m/s 753 mmHg 92%
    02:00 +12°C° 0 mm 2 m/s 753 mmHg 93%
    03:00 +10°C° 0 mm 3 m/s 753 mmHg 93%
    04:00 +10°C° 0 mm 3 m/s 754 mmHg 94%
    05:00 +10°C° 0 mm 3 m/s 754 mmHg 91%
    06:00 +11°C° 0 mm 3 m/s 754 mmHg 87%
    07:00 +12°C° 0 mm 4 m/s 754 mmHg 83%
    08:00 +13°C° 0 mm 4 m/s 754 mmHg 76%
    09:00 +14°C° 0 mm 4 m/s 754 mmHg 68%
    10:00 +16°C° 0 mm 5 m/s 754 mmHg 61%
    11:00 +17°C° 0 mm 5 m/s 754 mmHg 56%
    12:00 +19°C° 0 mm 5 m/s 753 mmHg 52%
    13:00 +20°C° 0 mm 5 m/s 753 mmHg 48%
    14:00 +20°C° 0 mm 5 m/s 753 mmHg 50%
    15:00 +20°C° 0 mm 4 m/s 752 mmHg 51%
    16:00 +20°C° 0 mm 4 m/s 752 mmHg 52%
    17:00 +19°C° 0 mm 4 m/s 752 mmHg 57%
    18:00 +18°C° 0 mm 3 m/s 751 mmHg 62%
    19:00 +16°C° 0 mm 2 m/s 751 mmHg 66%
    20:00 +15°C° 0 mm 2 m/s 752 mmHg 69%
    21:00 +15°C° 0 mm 2 m/s 752 mmHg 71%
    22:00 +14°C° 0 mm 2 m/s 752 mmHg 74%
    23:00 +13°C° 0 mm 2 m/s 752 mmHg 76%

    25 Abril, Quarta-feira

    Tempo Temperatura Precipitação Vento Pressão Humidade
    00:00 +13°C° 0 mm 2 m/s 752 mmHg 79%
    01:00 +12°C° 0 mm 2 m/s 752 mmHg 81%
    02:00 +12°C° 0 mm 2 m/s 752 mmHg 84%
    03:00 +10°C° 0 mm 2 m/s 752 mmHg 86%
    04:00 +10°C° 0 mm 2 m/s 752 mmHg 89%
    05:00 +12°C° 0 mm 2 m/s 752 mmHg 86%
    06:00 +13°C° 0 mm 2 m/s 752 mmHg 82%
    07:00 +14°C° 0 mm 2 m/s 752 mmHg 79%
    08:00 +15°C° 0 mm 2 m/s 752 mmHg 74%
    09:00 +17°C° 0 mm 2 m/s 752 mmHg 68%
    10:00 +18°C° 0 mm 2 m/s 752 mmHg 63%
    11:00 +19°C° 0 mm 2 m/s 752 mmHg 60%
    12:00 +20°C° 0 mm 2 m/s 751 mmHg 57%
    13:00 +21°C° 0 mm 2 m/s 750 mmHg 54%
    14:00 +22°C° 0 mm 3 m/s 750 mmHg 52%
    15:00 +22°C° 0 mm 3 m/s 749 mmHg 50%
    16:00 +24°C° 0 mm 3 m/s 748 mmHg 49%
    17:00 +22°C° 0 mm 3 m/s 747 mmHg 55%
    18:00 +20°C° 0 mm 3 m/s 747 mmHg 61%
    19:00 +19°C° 0 mm 3 m/s 746 mmHg 68%
    20:00 +18°C° 0,2 mm 3 m/s 746 mmHg 70%
    21:00 +18°C° 0,2 mm 4 m/s 746 mmHg 71%
    22:00 +17°C° 0,2 mm 4 m/s 746 mmHg 73%
    23:00 +17°C° 0 mm 4 m/s 746 mmHg 77%

    26 Abril, Quinta-feira

    Tempo Temperatura Precipitação Vento Pressão Humidade
    00:00 +16°C° 0 mm 5 m/s 746 mmHg 80%
    01:00 +15°C° 0 mm 5 m/s 746 mmHg 83%
    02:00 +15°C° 0 mm 4 m/s 746 mmHg 86%
    03:00 +14°C° 0 mm 4 m/s 747 mmHg 88%
    04:00 +13°C° 0 mm 4 m/s 747 mmHg 91%
    05:00 +14°C° 0 mm 4 m/s 747 mmHg 87%
    06:00 +14°C° 0 mm 5 m/s 748 mmHg 83%
    07:00 +14°C° 0 mm 5 m/s 748 mmHg 79%
    08:00 +15°C° 0 mm 5 m/s 748 mmHg 73%
    09:00 +16°C° 0 mm 5 m/s 748 mmHg 67%
    10:00 +17°C° 0 mm 5 m/s 748 mmHg 61%
    11:00 +17°C° 0 mm 5 m/s 748 mmHg 59%
    12:00 +18°C° 0 mm 4 m/s 748 mmHg 58%
    13:00 +18°C° 0 mm 4 m/s 748 mmHg 56%
    14:00 +18°C° 0,2 mm 4 m/s 748 mmHg 59%
    15:00 +18°C° 0,2 mm 3 m/s 748 mmHg 62%
    16:00 +17°C° 0,2 mm 3 m/s 748 mmHg 64%
    17:00 +16°C° 0,2 mm 3 m/s 748 mmHg 68%
    18:00 +14°C° 0,2 mm 3 m/s 748 mmHg 72%
    19:00 +13°C° 0,2 mm 3 m/s 748 mmHg 76%
    20:00 +12°C° 0 mm 3 m/s 749 mmHg 74%
    21:00 +12°C° 0 mm 3 m/s 749 mmHg 73%
    22:00 +11°C° 0 mm 3 m/s 750 mmHg 72%
    23:00 +11°C° 0 mm 3 m/s 750 mmHg 71%
    Mostrar mais